| time (UTC) | temp F | wind direction | speed MPH | gust MPH | rain 1hr in | rain 24hr in | rain mn in | humidity % | barometer mb |
| 20260906144022 | 55 | 0 | 0.0 | 0.0 | 0.00 | 0.00 | 0.00 | 72 | 1017.9 |
| 20260906143523 | 55 | 0 | 0.0 | 3.0 | 0.00 | 0.00 | 0.00 | 71 | 1017.8 |
| 20260906143043 | 54 | 0 | 0.0 | 3.0 | 0.00 | 0.00 | 0.00 | 71 | 1017.8 |
| 20260906142520 | 54 | 53 | 1.0 | 3.0 | 0.00 | 0.00 | 0.00 | 71 | 1017.7 |
| 20260906142023 | 54 | 49 | 1.0 | 3.0 | 0.00 | 0.00 | 0.00 | 71 | 1017.6 |
| 20260906141550 | 54 | 52 | 1.0 | 3.0 | 0.00 | 0.00 | 0.00 | 71 | 1017.6 |
| 20260906141020 | 54 | 50 | 1.0 | 3.0 | 0.00 | 0.00 | 0.00 | 71 | 1017.6 |
| 20260906140520 | 54 | 55 | 1.0 | 3.0 | 0.00 | 0.00 | 0.00 | 70 | 1017.4 |
| 20260906140040 | 54 | 0 | 1.0 | 3.0 | 0.00 | 0.00 | 0.00 | 71 | 1017.4 |
| 20260906135524 | 54 | 49 | 1.0 | 3.0 | 0.00 | 0.00 | 0.00 | 70 | 1017.4 |
| 20260906135023 | 54 | 55 | 1.0 | 3.0 | 0.00 | 0.00 | 0.00 | 70 | 1017.4 |
| 20260906134548 | 54 | 59 | 1.0 | 3.0 | 0.00 | 0.00 | 0.00 | 70 | 1017.4 |
| 20260906134023 | 54 | 53 | 1.0 | 3.0 | 0.00 | 0.00 | 0.00 | 70 | 1017.3 |
| 20260906133521 | 54 | 49 | 1.0 | 3.0 | 0.00 | 0.00 | 0.00 | 70 | 1017.3 |
| 20260906133045 | 54 | 54 | 1.0 | 3.0 | 0.00 | 0.00 | 0.00 | 70 | 1017.2 |
| 20260906132526 | 54 | 50 | 2.0 | 3.0 | 0.00 | 0.00 | 0.00 | 70 | 1017.3 |
| 20260906132020 | 54 | 64 | 1.0 | 3.0 | 0.00 | 0.00 | 0.00 | 70 | 1017.2 |
| 20260906131602 | 54 | 55 | 1.0 | 3.0 | 0.00 | 0.00 | 0.00 | 70 | 1017.2 |
| 20260906131025 | 54 | 0 | 1.0 | 3.0 | 0.00 | 0.00 | 0.00 | 70 | 1017.1 |
| 20260906130524 | 54 | 34 | 1.0 | 3.0 | 0.00 | 0.00 | 0.00 | 70 | 1017.1 |
| 20260906130056 | 54 | 58 | 1.0 | 4.0 | 0.00 | 0.00 | 0.00 | 70 | 1017.1 |
| 20260906125521 | 55 | 55 | 2.0 | 4.0 | 0.00 | 0.00 | 0.00 | 70 | 1017.2 |
| 20260906125023 | 55 | 45 | 1.0 | 3.0 | 0.00 | 0.00 | 0.00 | 69 | 1017.1 |
| 20260906124547 | 55 | 50 | 1.0 | 3.0 | 0.00 | 0.00 | 0.00 | 69 | 1017.0 |
| 20260906124022 | 55 | 45 | 1.0 | 3.0 | 0.00 | 0.00 | 0.00 | 69 | 1017.1 |
| 20260906123518 | 55 | 49 | 1.0 | 3.0 | 0.00 | 0.00 | 0.00 | 69 | 1017.1 |
| 20260906123056 | 55 | 46 | 1.0 | 3.0 | 0.00 | 0.00 | 0.00 | 69 | 1017.0 |
| 20260906122524 | 55 | 57 | 1.0 | 3.0 | 0.00 | 0.00 | 0.00 | 69 | 1017.1 |
| 20260906122024 | 55 | 47 | 1.0 | 3.0 | 0.00 | 0.00 | 0.00 | 69 | 1017.1 |
| 20260906121549 | 55 | 46 | 1.0 | 3.0 | 0.00 | 0.00 | 0.00 | 69 | 1017.1 |
| 20260906121029 | 55 | 66 | 1.0 | 3.0 | 0.00 | 0.00 | 0.00 | 69 | 1017.2 |
| 20260906120525 | 55 | 68 | 1.0 | 3.0 | 0.00 | 0.00 | 0.00 | 69 | 1017.1 |
| 20260906120046 | 55 | 65 | 1.0 | 3.0 | 0.00 | 0.00 | 0.00 | 70 | 1017.2 |
| 20260906115524 | 55 | 63 | 1.0 | 3.0 | 0.00 | 0.00 | 0.00 | 70 | 1017.2 |
| 20260906115020 | 55 | 61 | 1.0 | 3.0 | 0.00 | 0.00 | 0.00 | 69 | 1017.2 |
| 20260906114548 | 54 | 64 | 0.0 | 3.0 | 0.00 | 0.00 | 0.00 | 69 | 1017.1 |
| 20260906114020 | 54 | 0 | 0.0 | 3.0 | 0.00 | 0.00 | 0.00 | 70 | 1017.1 |
| 20260906113524 | 55 | 0 | 0.0 | 0.0 | 0.00 | 0.00 | 0.00 | 69 | 1017.1 |
| 20260906113051 | 54 | 0 | 0.0 | 3.0 | 0.00 | 0.00 | 0.00 | 70 | 1017.1 |
| 20260906112524 | 54 | 0 | 0.0 | 3.0 | 0.00 | 0.00 | 0.00 | 70 | 1017.1 |
| 20260906112025 | 54 | 61 | 1.0 | 3.0 | 0.00 | 0.00 | 0.00 | 70 | 1017.1 |
| 20260906111548 | 54 | 55 | 1.0 | 3.0 | 0.00 | 0.00 | 0.00 | 70 | 1017.1 |
| 20260906111024 | 54 | 56 | 0.0 | 3.0 | 0.00 | 0.00 | 0.00 | 70 | 1017.0 |
| 20260906110524 | 54 | 56 | 1.0 | 4.0 | 0.00 | 0.00 | 0.00 | 70 | 1017.1 |
| 20260906110042 | 54 | 57 | 1.0 | 4.0 | 0.00 | 0.00 | 0.00 | 69 | 1017.1 |
| 20260906105521 | 54 | 54 | 1.0 | 3.0 | 0.00 | 0.00 | 0.00 | 69 | 1017.0 |
| 20260906105018 | 55 | 57 | 1.0 | 3.0 | 0.00 | 0.00 | 0.00 | 69 | 1017.1 |
| 20260906104541 | 54 | 0 | 1.0 | 4.0 | 0.00 | 0.00 | 0.00 | 70 | 1017.1 |
| 20260906104021 | 54 | 63 | 1.0 | 4.0 | 0.00 | 0.00 | 0.00 | 70 | 1017.1 |
| 20260906103524 | 54 | 0 | 1.0 | 3.0 | 0.00 | 0.00 | 0.00 | 70 | 1017.1 |
| 20260906103051 | 54 | 63 | 1.0 | 3.0 | 0.00 | 0.00 | 0.00 | 70 | 1017.1 |
| 20260906102528 | 55 | 0 | 1.0 | 3.0 | 0.00 | 0.00 | 0.00 | 70 | 1017.1 |
| 20260906102024 | 54 | 63 | 1.0 | 3.0 | 0.00 | 0.00 | 0.00 | 70 | 1017.1 |
| 20260906101549 | 54 | 0 | 1.0 | 3.0 | 0.00 | 0.00 | 0.00 | 70 | 1017.1 |
| 20260906101024 | 54 | 57 | 1.0 | 3.0 | 0.00 | 0.00 | 0.00 | 70 | 1017.2 |
| 20260906100528 | 54 | 58 | 1.0 | 3.0 | 0.00 | 0.00 | 0.00 | 70 | 1017.2 |
| 20260906100040 | 54 | 0 | 1.0 | 3.0 | 0.00 | 0.00 | 0.00 | 70 | 1017.2 |
| 20260906095525 | 54 | 57 | 2.0 | 4.0 | 0.00 | 0.00 | 0.00 | 70 | 1017.2 |
| 20260906095021 | 55 | 52 | 1.0 | 4.0 | 0.00 | 0.00 | 0.00 | 70 | 1017.3 |
| 20260906094545 | 55 | 54 | 1.0 | 4.0 | 0.00 | 0.00 | 0.00 | 70 | 1017.3 |
| 20260906094024 | 55 | 54 | 1.0 | 4.0 | 0.00 | 0.00 | 0.00 | 70 | 1017.3 |
| 20260906093525 | 55 | 42 | 1.0 | 4.0 | 0.00 | 0.00 | 0.00 | 70 | 1017.4 |
| 20260906093042 | 55 | 54 | 1.0 | 3.0 | 0.00 | 0.00 | 0.00 | 70 | 1017.4 |
| 20260906092523 | 55 | 59 | 0.0 | 3.0 | 0.00 | 0.00 | 0.00 | 70 | 1017.4 |
| 20260906092026 | 55 | 58 | 1.0 | 2.0 | 0.00 | 0.00 | 0.00 | 70 | 1017.4 |
| 20260906091549 | 55 | 0 | 0.0 | 0.0 | 0.00 | 0.00 | 0.00 | 70 | 1017.4 |
| 20260906091023 | 55 | 0 | 0.0 | 0.0 | 0.00 | 0.00 | 0.00 | 69 | 1017.5 |
| 20260906090523 | 55 | 0 | 0.0 | 0.0 | 0.00 | 0.00 | 0.00 | 69 | 1017.5 |
| 20260906090052 | 56 | 0 | 0.0 | 0.0 | 0.00 | 0.00 | 0.00 | 69 | 1017.5 |
| 20260906085521 | 56 | 0 | 0.0 | 0.0 | 0.00 | 0.00 | 0.00 | 69 | 1017.5 |
| 20260906085021 | 56 | 0 | 0.0 | 0.0 | 0.00 | 0.00 | 0.00 | 69 | 1017.5 |
| 20260906084543 | 56 | 0 | 0.0 | 0.0 | 0.00 | 0.00 | 0.00 | 68 | 1017.6 |
| 20260906084030 | 56 | 0 | 0.0 | 0.0 | 0.00 | 0.00 | 0.00 | 68 | 1017.5 |
| 20260906083524 | 56 | 0 | 0.0 | 0.0 | 0.00 | 0.00 | 0.00 | 68 | 1017.6 |
| 20260906083047 | 56 | 0 | 0.0 | 0.0 | 0.00 | 0.00 | 0.00 | 68 | 1017.7 |
| 20260906082523 | 56 | 0 | 0.0 | 0.0 | 0.00 | 0.00 | 0.00 | 68 | 1017.7 |
| 20260906082023 | 56 | 0 | 0.0 | 0.0 | 0.00 | 0.00 | 0.00 | 68 | 1017.6 |
| 20260906081547 | 57 | 0 | 0.0 | 0.0 | 0.00 | 0.00 | 0.00 | 68 | 1017.7 |
| 20260906081021 | 57 | 0 | 0.0 | 0.0 | 0.00 | 0.00 | 0.00 | 68 | 1017.6 |
| 20260906080522 | 56 | 0 | 0.0 | 0.0 | 0.00 | 0.00 | 0.00 | 68 | 1017.5 |
| 20260906080047 | 56 | 0 | 0.0 | 0.0 | 0.00 | 0.00 | 0.00 | 68 | 1017.6 |
| 20260906075519 | 56 | 0 | 0.0 | 0.0 | 0.00 | 0.00 | 0.00 | 68 | 1017.6 |
| 20260906075021 | 56 | 0 | 0.0 | 0.0 | 0.00 | 0.00 | 0.00 | 68 | 1017.5 |
| 20260906074541 | 56 | 0 | 0.0 | 0.0 | 0.00 | 0.00 | 0.00 | 68 | 1017.5 |
| 20260906074021 | 57 | 0 | 0.0 | 0.0 | 0.00 | 0.00 | 0.00 | 68 | 1017.6 |
| 20260906073552 | 57 | 0 | 0.0 | 0.0 | 0.00 | 0.00 | 0.00 | 68 | 1017.6 |
| 20260906073042 | 57 | 0 | 0.0 | 0.0 | 0.00 | 0.00 | 0.00 | 68 | 1017.5 |
| 20260906072528 | 57 | 0 | 0.0 | 0.0 | 0.00 | 0.00 | 0.00 | 68 | 1017.5 |
| 20260906072024 | 56 | 0 | 0.0 | 0.0 | 0.00 | 0.00 | 0.00 | 68 | 1017.6 |
| 20260906071548 | 56 | 0 | 0.0 | 0.0 | 0.00 | 0.00 | 0.00 | 68 | 1017.5 |
| 20260906071024 | 56 | 0 | 0.0 | 0.0 | 0.00 | 0.00 | 0.00 | 68 | 1017.5 |
| 20260906070526 | 56 | 0 | 0.0 | 0.0 | 0.00 | 0.00 | 0.00 | 68 | 1017.7 |
| 20260906070043 | 56 | 0 | 0.0 | 0.0 | 0.00 | 0.00 | 0.00 | 68 | 1017.6 |
| 20260906065521 | 56 | 0 | 0.0 | 0.0 | 0.00 | 0.00 | 0.00 | 67 | 1017.5 |
| 20260906065022 | 56 | 0 | 0.0 | 0.0 | 0.00 | 0.00 | 0.00 | 67 | 1017.6 |
| 20260906064540 | 56 | 0 | 0.0 | 0.0 | 0.00 | 0.00 | 0.00 | 68 | 1017.6 |
| 20260906064024 | 56 | 0 | 0.0 | 0.0 | 0.00 | 0.00 | 0.00 | 67 | 1017.6 |
| 20260906063523 | 56 | 0 | 0.0 | 2.0 | 0.00 | 0.00 | 0.00 | 67 | 1017.7 |
| 20260906063041 | 57 | 0 | 0.0 | 3.0 | 0.00 | 0.00 | 0.00 | 67 | 1017.7 |
| 20260906062523 | 57 | 47 | 1.0 | 4.0 | 0.00 | 0.00 | 0.00 | 67 | 1017.6 |
| 20260906062022 | 57 | 15 | 1.0 | 4.0 | 0.00 | 0.00 | 0.00 | 67 | 1017.7 |
| 20260906061547 | 57 | 22 | 1.0 | 4.0 | 0.00 | 0.00 | 0.00 | 66 | 1017.7 |
| 20260906061023 | 57 | 0 | 0.0 | 4.0 | 0.00 | 0.00 | 0.00 | 66 | 1017.8 |
| 20260906060524 | 57 | 5 | 0.0 | 4.0 | 0.00 | 0.00 | 0.00 | 66 | 1017.8 |
| 20260906060111 | 57 | 5 | 1.0 | 4.0 | 0.00 | 0.00 | 0.00 | 66 | 1017.8 |
| 20260906055523 | 57 | 5 | 2.0 | 4.0 | 0.00 | 0.00 | 0.00 | 66 | 1017.8 |
| 20260906055024 | 56 | 5 | 1.0 | 4.0 | 0.00 | 0.00 | 0.00 | 66 | 1017.8 |
| 20260906054551 | 56 | 0 | 0.0 | 0.0 | 0.00 | 0.00 | 0.00 | 66 | 1017.8 |
| 20260906054022 | 56 | 0 | 0.0 | 0.0 | 0.00 | 0.00 | 0.00 | 67 | 1017.8 |
| 20260906053522 | 56 | 0 | 0.0 | 0.0 | 0.00 | 0.00 | 0.00 | 67 | 1017.9 |
| 20260906053042 | 55 | 0 | 0.0 | 0.0 | 0.00 | 0.00 | 0.00 | 67 | 1017.9 |
| 20260906052520 | 55 | 0 | 0.0 | 0.0 | 0.00 | 0.00 | 0.00 | 67 | 1017.9 |
| 20260906052026 | 55 | 0 | 0.0 | 0.0 | 0.00 | 0.00 | 0.00 | 67 | 1018.0 |
| 20260906051540 | 55 | 0 | 0.0 | 0.0 | 0.00 | 0.00 | 0.00 | 66 | 1018.1 |
| 20260906051024 | 56 | 0 | 0.0 | 0.0 | 0.00 | 0.00 | 0.00 | 66 | 1018.1 |
| 20260906050527 | 56 | 0 | 0.0 | 0.0 | 0.00 | 0.00 | 0.00 | 65 | 1018.1 |
| 20260906050047 | 56 | 0 | 0.0 | 0.0 | 0.00 | 0.00 | 0.00 | 64 | 1018.1 |
| 20260906045522 | 57 | 0 | 0.0 | 0.0 | 0.00 | 0.00 | 0.00 | 64 | 1018.1 |
| 20260906045021 | 57 | 0 | 0.0 | 0.0 | 0.00 | 0.00 | 0.00 | 64 | 1018.0 |
| 20260906044545 | 57 | 0 | 0.0 | 0.0 | 0.00 | 0.00 | 0.00 | 64 | 1018.0 |
| 20260906044023 | 57 | 0 | 0.0 | 0.0 | 0.00 | 0.00 | 0.00 | 64 | 1018.1 |
| 20260906043526 | 57 | 0 | 0.0 | 0.0 | 0.00 | 0.00 | 0.00 | 64 | 1018.0 |
| 20260906043041 | 57 | 0 | 0.0 | 0.0 | 0.00 | 0.00 | 0.00 | 64 | 1018.0 |
| 20260906042521 | 57 | 0 | 0.0 | 0.0 | 0.00 | 0.00 | 0.00 | 65 | 1018.0 |
| 20260906042020 | 56 | 0 | 0.0 | 0.0 | 0.00 | 0.00 | 0.00 | 66 | 1018.0 |
| 20260906041540 | 56 | 0 | 0.0 | 0.0 | 0.00 | 0.00 | 0.00 | 66 | 1017.9 |
| 20260906041024 | 56 | 0 | 0.0 | 0.0 | 0.00 | 0.00 | 0.00 | 65 | 1018.0 |
| 20260906040523 | 56 | 0 | 0.0 | 0.0 | 0.00 | 0.00 | 0.00 | 65 | 1018.0 |
| 20260906040046 | 56 | 0 | 0.0 | 0.0 | 0.00 | 0.00 | 0.00 | 65 | 1017.9 |
| 20260906035523 | 57 | 0 | 0.0 | 0.0 | 0.00 | 0.00 | 0.00 | 65 | 1018.0 |
| 20260906035022 | 57 | 0 | 0.0 | 0.0 | 0.00 | 0.00 | 0.00 | 65 | 1017.9 |
| 20260906034555 | 57 | 0 | 0.0 | 0.0 | 0.00 | 0.00 | 0.00 | 65 | 1017.9 |
| 20260906034021 | 57 | 0 | 0.0 | 0.0 | 0.00 | 0.00 | 0.00 | 65 | 1017.8 |
| 20260906033518 | 57 | 0 | 0.0 | 0.0 | 0.00 | 0.00 | 0.00 | 65 | 1017.8 |
| 20260906033041 | 57 | 0 | 0.0 | 0.0 | 0.00 | 0.00 | 0.00 | 64 | 1017.8 |
| 20260906032524 | 57 | 0 | 0.0 | 0.0 | 0.00 | 0.00 | 0.00 | 65 | 1017.8 |
| 20260906032024 | 57 | 0 | 0.0 | 0.0 | 0.00 | 0.00 | 0.00 | 64 | 1017.7 |
| 20260906031544 | 58 | 0 | 0.0 | 0.0 | 0.00 | 0.00 | 0.00 | 64 | 1017.7 |
| 20260906031022 | 58 | 0 | 0.0 | 0.0 | 0.00 | 0.00 | 0.00 | 63 | 1017.7 |
| 20260906030526 | 58 | 0 | 0.0 | 0.0 | 0.00 | 0.00 | 0.00 | 63 | 1017.6 |
| 20260906030042 | 58 | 0 | 0.0 | 0.0 | 0.00 | 0.00 | 0.00 | 62 | 1017.5 |
| 20260906025522 | 58 | 0 | 0.0 | 0.0 | 0.00 | 0.00 | 0.00 | 62 | 1017.5 |
| 20260906025020 | 59 | 0 | 0.0 | 0.0 | 0.00 | 0.00 | 0.00 | 62 | 1017.5 |
| 20260906024541 | 59 | 0 | 0.0 | 0.0 | 0.00 | 0.00 | 0.00 | 62 | 1017.5 |
| 20260906024027 | 59 | 0 | 0.0 | 2.0 | 0.00 | 0.00 | 0.00 | 61 | 1017.4 |
| 20260906023524 | 60 | 0 | 0.0 | 2.0 | 0.00 | 0.00 | 0.00 | 61 | 1017.5 |
| 20260906023044 | 60 | 239 | 0.0 | 4.0 | 0.00 | 0.00 | 0.00 | 60 | 1017.6 |
| 20260906022521 | 60 | 239 | 1.0 | 4.0 | 0.00 | 0.00 | 0.00 | 60 | 1017.6 |
| 20260906022023 | 60 | 239 | 1.0 | 4.0 | 0.00 | 0.00 | 0.00 | 59 | 1017.5 |
| 20260906021544 | 60 | 220 | 1.0 | 5.0 | 0.00 | 0.00 | 0.00 | 60 | 1017.6 |
| 20260906021021 | 60 | 225 | 3.0 | 6.0 | 0.00 | 0.00 | 0.00 | 59 | 1017.6 |
| 20260906020520 | 61 | 227 | 3.0 | 6.0 | 0.00 | 0.00 | 0.00 | 59 | 1017.6 |
| 20260906020053 | 61 | 234 | 1.0 | 4.0 | 0.00 | 0.00 | 0.00 | 59 | 1017.6 |
| 20260906015523 | 61 | 229 | 2.0 | 6.0 | 0.00 | 0.00 | 0.00 | 59 | 1017.6 |
| 20260906015024 | 62 | 223 | 2.0 | 6.0 | 0.00 | 0.00 | 0.00 | 58 | 1017.5 |
| 20260906014547 | 62 | 207 | 2.0 | 5.0 | 0.00 | 0.00 | 0.00 | 58 | 1017.6 |
| 20260906014028 | 62 | 219 | 2.0 | 6.0 | 0.00 | 0.00 | 0.00 | 57 | 1017.5 |
| 20260906013523 | 63 | 221 | 3.0 | 6.0 | 0.00 | 0.00 | 0.00 | 57 | 1017.6 |
| 20260906013045 | 63 | 212 | 4.0 | 6.0 | 0.00 | 0.00 | 0.00 | 56 | 1017.6 |
| 20260906012519 | 63 | 232 | 3.0 | 6.0 | 0.00 | 0.00 | 0.00 | 56 | 1017.6 |
| 20260906012021 | 64 | 234 | 2.0 | 6.0 | 0.00 | 0.00 | 0.00 | 55 | 1017.6 |
| 20260906011540 | 64 | 226 | 2.0 | 6.0 | 0.00 | 0.00 | 0.00 | 55 | 1017.6 |
| 20260906011018 | 65 | 232 | 2.0 | 7.0 | 0.00 | 0.00 | 0.00 | 54 | 1017.6 |
| 20260906010525 | 65 | 194 | 2.0 | 7.0 | 0.00 | 0.00 | 0.00 | 54 | 1017.6 |
| 20260906010054 | 65 | 225 | 2.0 | 8.0 | 0.00 | 0.00 | 0.00 | 53 | 1017.6 |
| 20260906005525 | 65 | 216 | 4.0 | 8.0 | 0.00 | 0.00 | 0.00 | 53 | 1017.7 |
| 20260906005025 | 65 | 218 | 2.0 | 7.0 | 0.00 | 0.00 | 0.00 | 54 | 1017.5 |
| 20260906004559 | 65 | 246 | 3.0 | 11.0 | 0.00 | 0.00 | 0.00 | 53 | 1017.6 |
| 20260906004029 | 65 | 231 | 1.0 | 11.0 | 0.00 | 0.00 | 0.00 | 54 | 1017.5 |
| 20260906003521 | 65 | 238 | 5.0 | 10.0 | 0.00 | 0.00 | 0.00 | 54 | 1017.5 |
| 20260906003042 | 65 | 200 | 2.0 | 8.0 | 0.00 | 0.00 | 0.00 | 54 | 1017.6 |
| 20260906002521 | 65 | 194 | 4.0 | 8.0 | 0.00 | 0.00 | 0.00 | 53 | 1017.6 |
| 20260906002020 | 65 | 220 | 1.0 | 7.0 | 0.00 | 0.00 | 0.00 | 54 | 1017.6 |
| 20260906001556 | 65 | 198 | 2.0 | 7.0 | 0.00 | 0.00 | 0.00 | 53 | 1017.6 |
| 20260906001021 | 66 | 0 | 3.0 | 8.0 | 0.00 | 0.00 | 0.00 | 52 | 1017.7 |
| 20260906000525 | 66 | 190 | 2.0 | 8.0 | 0.00 | 0.00 | 0.00 | 51 | 1017.6 |
| 20260906000042 | 66 | 205 | 4.0 | 8.0 | 0.00 | 0.00 | 0.00 | 51 | 1017.5 |
| 20260905235524 | 66 | 192 | 3.0 | 8.0 | 0.00 | 0.00 | 0.00 | 51 | 1017.6 |
| 20260905235024 | 66 | 220 | 4.0 | 8.0 | 0.00 | 0.00 | 0.00 | 50 | 1017.5 |
| 20260905234547 | 66 | 240 | 2.0 | 8.0 | 0.00 | 0.00 | 0.00 | 52 | 1017.5 |
| 20260905234024 | 66 | 190 | 4.0 | 8.0 | 0.00 | 0.00 | 0.00 | 51 | 1017.7 |
| 20260905233521 | 67 | 225 | 4.0 | 8.0 | 0.00 | 0.00 | 0.00 | 50 | 1017.6 |
| 20260905233053 | 67 | 167 | 3.0 | 6.0 | 0.00 | 0.00 | 0.00 | 50 | 1017.7 |
| 20260905232527 | 66 | 176 | 3.0 | 9.0 | 0.00 | 0.00 | 0.00 | 50 | 1017.7 |
| 20260905232024 | 66 | 214 | 4.0 | 10.0 | 0.00 | 0.00 | 0.00 | 50 | 1017.8 |
| 20260905231541 | 66 | 222 | 6.0 | 10.0 | 0.00 | 0.00 | 0.00 | 50 | 1017.7 |
| 20260905231028 | 66 | 216 | 2.0 | 7.0 | 0.00 | 0.00 | 0.00 | 49 | 1017.7 |
| 20260905230525 | 67 | 191 | 2.0 | 8.0 | 0.00 | 0.00 | 0.00 | 48 | 1017.8 |
| 20260905230045 | 68 | 47 | 2.0 | 8.0 | 0.00 | 0.00 | 0.00 | 48 | 1017.7 |
| 20260905225530 | 68 | 232 | 2.0 | 7.0 | 0.00 | 0.00 | 0.00 | 48 | 1017.8 |
| 20260905225019 | 67 | 344 | 2.0 | 7.0 | 0.00 | 0.00 | 0.00 | 51 | 1017.9 |
| 20260905224540 | 65 | 227 | 2.0 | 12.0 | 0.00 | 0.00 | 0.00 | 51 | 1017.9 |
| 20260905224021 | 65 | 268 | 5.0 | 12.0 | 0.00 | 0.00 | 0.00 | 51 | 1018.0 |
| 20260905223521 | 64 | 214 | 5.0 | 10.0 | 0.00 | 0.00 | 0.00 | 52 | 1018.0 |
| 20260905223049 | 64 | 211 | 3.0 | 10.0 | 0.00 | 0.00 | 0.00 | 52 | 1017.9 |
| 20260905222524 | 64 | 227 | 4.0 | 10.0 | 0.00 | 0.00 | 0.00 | 52 | 1018.0 |
| 20260905222024 | 64 | 267 | 3.0 | 8.0 | 0.00 | 0.00 | 0.00 | 52 | 1018.0 |
| 20260905221547 | 64 | 229 | 4.0 | 10.0 | 0.00 | 0.00 | 0.00 | 52 | 1018.0 |
| 20260905221023 | 64 | 227 | 5.0 | 12.0 | 0.00 | 0.00 | 0.00 | 51 | 1018.0 |
| 20260905220524 | 65 | 232 | 6.0 | 12.0 | 0.00 | 0.00 | 0.00 | 50 | 1018.0 |
| 20260905220042 | 65 | 229 | 4.0 | 8.0 | 0.00 | 0.00 | 0.00 | 50 | 1018.0 |
| 20260905215520 | 65 | 191 | 3.0 | 8.0 | 0.00 | 0.00 | 0.00 | 50 | 1018.1 |
| 20260905215024 | 66 | 188 | 4.0 | 8.0 | 0.00 | 0.00 | 0.00 | 50 | 1018.1 |
| 20260905214550 | 66 | 198 | 4.0 | 8.0 | 0.00 | 0.00 | 0.00 | 50 | 1018.1 |
| 20260905214024 | 65 | 231 | 2.0 | 8.0 | 0.00 | 0.00 | 0.00 | 49 | 1018.0 |
| 20260905213525 | 66 | 258 | 3.0 | 8.0 | 0.00 | 0.00 | 0.00 | 48 | 1018.0 |
| 20260905213049 | 67 | 229 | 3.0 | 11.0 | 0.00 | 0.00 | 0.00 | 47 | 1018.1 |
| 20260905212526 | 68 | 191 | 4.0 | 11.0 | 0.00 | 0.00 | 0.00 | 46 | 1018.1 |
| 20260905212022 | 69 | 200 | 4.0 | 11.0 | 0.00 | 0.00 | 0.00 | 47 | 1018.0 |
| 20260905211545 | 69 | 221 | 2.0 | 7.0 | 0.00 | 0.00 | 0.00 | 48 | 1018.0 |
| 20260905211019 | 68 | 202 | 3.0 | 14.0 | 0.00 | 0.00 | 0.00 | 49 | 1018.0 |
| 20260905210521 | 67 | 208 | 4.0 | 14.0 | 0.00 | 0.00 | 0.00 | 48 | 1018.1 |
| 20260905210053 | 67 | 250 | 4.0 | 13.0 | 0.00 | 0.00 | 0.00 | 48 | 1018.1 |
| 20260905205524 | 67 | 224 | 2.0 | 7.0 | 0.00 | 0.00 | 0.00 | 48 | 1018.0 |
| 20260905205024 | 67 | 215 | 4.0 | 10.0 | 0.00 | 0.00 | 0.00 | 48 | 1018.1 |
| 20260905204547 | 67 | 214 | 3.0 | 10.0 | 0.00 | 0.00 | 0.00 | 51 | 1018.1 |
| 20260905204024 | 67 | 250 | 4.0 | 10.0 | 0.00 | 0.00 | 0.00 | 51 | 1017.8 |
| 20260905203526 | 67 | 186 | 4.0 | 11.0 | 0.00 | 0.00 | 0.00 | 50 | 1018.1 |
| 20260905203042 | 68 | 176 | 3.0 | 13.0 | 0.00 | 0.00 | 0.00 | 49 | 1018.1 |
| 20260905202522 | 68 | 184 | 5.0 | 13.0 | 0.00 | 0.00 | 0.00 | 49 | 1018.1 |
| 20260905202019 | 69 | 276 | 6.0 | 12.0 | 0.00 | 0.00 | 0.00 | 48 | 1018.0 |
| 20260905201541 | 68 | 208 | 4.0 | 15.0 | 0.00 | 0.00 | 0.00 | 49 | 1017.9 |
| 20260905201020 | 69 | 205 | 5.0 | 15.0 | 0.00 | 0.00 | 0.00 | 50 | 1017.9 |
| 20260905200521 | 68 | 59 | 5.0 | 15.0 | 0.00 | 0.00 | 0.00 | 49 | 1018.0 |
| 20260905200108 | 68 | 198 | 4.0 | 10.0 | 0.00 | 0.00 | 0.00 | 51 | 1018.0 |
| 20260905195520 | 68 | 183 | 3.0 | 12.0 | 0.00 | 0.00 | 0.00 | 49 | 1018.0 |
| 20260905195020 | 68 | 177 | 2.0 | 12.0 | 0.00 | 0.00 | 0.00 | 51 | 1018.2 |
| 20260905194542 | 68 | 149 | 4.0 | 10.0 | 0.00 | 0.00 | 0.00 | 50 | 1018.1 |
| 20260905194024 | 68 | 190 | 3.0 | 10.0 | 0.00 | 0.00 | 0.00 | 49 | 1018.1 |
| 20260905193521 | 68 | 185 | 4.0 | 10.0 | 0.00 | 0.00 | 0.00 | 51 | 1018.1 |
| 20260905193043 | 68 | 210 | 4.0 | 10.0 | 0.00 | 0.00 | 0.00 | 51 | 1018.2 |
| 20260905192520 | 68 | 221 | 4.0 | 9.0 | 0.00 | 0.00 | 0.00 | 51 | 1018.1 |
| 20260905192020 | 67 | 215 | 4.0 | 10.0 | 0.00 | 0.00 | 0.00 | 51 | 1018.2 |
| 20260905191542 | 66 | 192 | 4.0 | 11.0 | 0.00 | 0.00 | 0.00 | 53 | 1018.2 |
| 20260905191020 | 66 | 219 | 4.0 | 11.0 | 0.00 | 0.00 | 0.00 | 52 | 1018.3 |
| 20260905190519 | 66 | 194 | 3.0 | 10.0 | 0.00 | 0.00 | 0.00 | 52 | 1018.3 |
| 20260905190040 | 66 | 81 | 4.0 | 12.0 | 0.00 | 0.00 | 0.00 | 52 | 1018.3 |
| 20260905185603 | 67 | 214 | 5.0 | 12.0 | 0.00 | 0.00 | 0.00 | 51 | 1018.2 |
| 20260905185022 | 67 | 229 | 2.0 | 9.0 | 0.00 | 0.00 | 0.00 | 51 | 1018.2 |
| 20260905184555 | 67 | 252 | 4.0 | 9.0 | 0.00 | 0.00 | 0.00 | 50 | 1018.3 |
| 20260905184023 | 67 | 238 | 1.0 | 9.0 | 0.00 | 0.00 | 0.00 | 53 | 1018.3 |
| 20260905183523 | 66 | 209 | 3.0 | 9.0 | 0.00 | 0.00 | 0.00 | 53 | 1018.4 |
| 20260905183053 | 66 | 248 | 3.0 | 9.0 | 0.00 | 0.00 | 0.00 | 52 | 1018.4 |
| 20260905182521 | 65 | 216 | 4.0 | 7.0 | 0.00 | 0.00 | 0.00 | 54 | 1018.3 |
| 20260905182028 | 65 | 206 | 2.0 | 6.0 | 0.00 | 0.00 | 0.00 | 54 | 1018.3 |
| 20260905181553 | 65 | 192 | 2.0 | 7.0 | 0.00 | 0.00 | 0.00 | 53 | 1018.3 |
| 20260905181023 | 65 | 190 | 3.0 | 7.0 | 0.00 | 0.00 | 0.00 | 54 | 1018.3 |
| 20260905180524 | 65 | 194 | 3.0 | 7.0 | 0.00 | 0.00 | 0.00 | 55 | 1018.2 |
| 20260905180045 | 64 | 204 | 3.0 | 6.0 | 0.00 | 0.00 | 0.00 | 55 | 1018.2 |
| 20260905175525 | 64 | 221 | 1.0 | 4.0 | 0.00 | 0.00 | 0.00 | 57 | 1018.1 |
| 20260905175021 | 65 | 262 | 2.0 | 6.0 | 0.00 | 0.00 | 0.00 | 56 | 1018.0 |
| 20260905174541 | 65 | 259 | 1.0 | 7.0 | 0.00 | 0.00 | 0.00 | 58 | 1018.0 |
| 20260905174022 | 65 | 5 | 2.0 | 8.0 | 0.00 | 0.00 | 0.00 | 55 | 1018.1 |
| 20260905173520 | 64 | 286 | 2.0 | 9.0 | 0.00 | 0.00 | 0.00 | 56 | 1018.1 |
| 20260905173049 | 63 | 211 | 2.0 | 9.0 | 0.00 | 0.00 | 0.00 | 57 | 1018.0 |
| 20260905172525 | 63 | 73 | 3.0 | 6.0 | 0.00 | 0.00 | 0.00 | 58 | 1018.0 |
| 20260905172025 | 63 | 0 | 2.0 | 7.0 | 0.00 | 0.00 | 0.00 | 57 | 1018.0 |
| 20260905171540 | 63 | 200 | 3.0 | 7.0 | 0.00 | 0.00 | 0.00 | 58 | 1018.0 |
| 20260905171027 | 63 | 228 | 3.0 | 5.0 | 0.00 | 0.00 | 0.00 | 57 | 1018.0 |
| 20260905170522 | 63 | 207 | 1.0 | 4.0 | 0.00 | 0.00 | 0.00 | 58 | 1017.9 |
| 20260905170041 | 63 | 27 | 1.0 | 4.0 | 0.00 | 0.00 | 0.00 | 58 | 1017.9 |
| 20260905165521 | 63 | 130 | 1.0 | 4.0 | 0.00 | 0.00 | 0.00 | 58 | 1017.8 |
| 20260905165023 | 62 | 301 | 2.0 | 4.0 | 0.00 | 0.00 | 0.00 | 59 | 1017.8 |
| 20260905164544 | 61 | 228 | 1.0 | 4.0 | 0.00 | 0.00 | 0.00 | 60 | 1017.8 |
| 20260905164027 | 61 | 225 | 1.0 | 4.0 | 0.00 | 0.00 | 0.00 | 61 | 1017.8 |
| 20260905163524 | 60 | 0 | 1.0 | 3.0 | 0.00 | 0.00 | 0.00 | 61 | 1017.8 |
| 20260905163041 | 59 | 224 | 1.0 | 3.0 | 0.00 | 0.00 | 0.00 | 63 | 1017.8 |
| 20260905162521 | 58 | 200 | 0.0 | 2.0 | 0.00 | 0.00 | 0.00 | 65 | 1017.8 |
| 20260905162022 | 58 | 0 | 0.0 | 3.0 | 0.00 | 0.00 | 0.00 | 65 | 1017.8 |
| 20260905161543 | 57 | 352 | 0.0 | 3.0 | 0.00 | 0.00 | 0.00 | 65 | 1017.8 |
| 20260905161028 | 57 | 35 | 1.0 | 3.0 | 0.00 | 0.00 | 0.00 | 67 | 1017.7 |
| 20260905160520 | 56 | 0 | 0.0 | 0.0 | 0.00 | 0.00 | 0.00 | 67 | 1017.7 |
| 20260905160040 | 56 | 0 | 0.0 | 0.0 | 0.00 | 0.00 | 0.00 | 69 | 1017.7 |
| 20260905155521 | 56 | 0 | 0.0 | 0.0 | 0.00 | 0.00 | 0.00 | 68 | 1017.7 |
| 20260905155019 | 56 | 0 | 0.0 | 0.0 | 0.00 | 0.00 | 0.00 | 70 | 1017.6 |
| 20260905154539 | 56 | 0 | 0.0 | 0.0 | 0.00 | 0.00 | 0.00 | 68 | 1017.7 |
| 20260905154020 | 56 | 0 | 0.0 | 3.0 | 0.00 | 0.00 | 0.00 | 66 | 1017.7 |
| 20260905153524 | 56 | 0 | 0.0 | 3.0 | 0.00 | 0.00 | 0.00 | 67 | 1017.7 |
| 20260905153040 | 55 | 40 | 0.0 | 0.0 | 0.00 | 0.00 | 0.00 | 72 | 1017.6 |
| 20260905152525 | 55 | 0 | 0.0 | 0.0 | 0.00 | 0.00 | 0.00 | 72 | 1017.6 |
| 20260905152023 | 55 | 0 | 0.0 | 0.0 | 0.00 | 0.00 | 0.00 | 72 | 1017.5 |
| 20260905151555 | 55 | 0 | 0.0 | 0.0 | 0.00 | 0.00 | 0.00 | 72 | 1017.5 |
| 20260905151026 | 55 | 0 | 0.0 | 0.0 | 0.00 | 0.00 | 0.00 | 72 | 1017.5 |
| 20260905150524 | 55 | 0 | 0.0 | 0.0 | 0.00 | 0.00 | 0.00 | 72 | 1017.5 |
| 20260905150040 | 55 | 0 | 0.0 | 0.0 | 0.00 | 0.00 | 0.00 | 71 | 1017.5 |
| 20260905145520 | 55 | 0 | 0.0 | 0.0 | 0.00 | 0.00 | 0.00 | 71 | 1017.5 |
| 20260905145021 | 55 | 0 | 0.0 | 0.0 | 0.00 | 0.00 | 0.00 | 71 | 1017.5 |
| 20260905144546 | 55 | 0 | 0.0 | 0.0 | 0.00 | 0.00 | 0.00 | 70 | 1017.5 |